Temp
28 29 28 28 27 26 26 25 25 25 25 24 24 24 24 24 23 23 22 23 23 23 23 24 24 24 25 23 25 26 25 25 25 24 23 20 19 20 18 18 17 18 16
30 28 28 27 27 28 26 26 25 25 25 24 24 24 23 23 23 24 23 24 23 22 23 24 24 24 23 23 23 25 25 24 26 23 22 20 19 19 18 18 19 20 19
30 29 27 28 27 27 28 26 26 25 24 24 24 23 22 23 23 23 23 23 23 23 24 24 24 24 24 24 23 24 25 24 23 24 22 21 20 19 18 18 18 20 19
31 30 29 28 28 28 28 26 26 25 24 23 19 19 20 18 21 21 22 22 23 23 23 22 23 24 24 23 23 23 24 24 24 24 24 22 21 20 19 20 19 19 19
29 29 29 28 28 27 26 26 25 24 22 21 23 24 22 19 23 22 22 22 22 24 23 22 22 23 23 24 24 23 23 23 24 24 25 23 22 21 20 21 21 20 19
28 28 28 27 26 26 25 25 24 22 23 23 23 26 26 27 23 22 22 22 21 22 22 23 23 23 22 22 23 22 22 22 25 25 25 23 23 22 21 22 22 22 22
27 27 26 26 26 25 25 24 23 22 21 21 23 25 24 24 23 22 22 22 22 22 22 22 23 23 22 21 21 21 21 21 23 24 25 23 24 22 22 21 22 22 22
26 26 26 26 26 26 25 25 24 22 20 20 20 22 23 23 19 21 23 23 22 22 22 22 22 23 23 23 22 21 21 21 21 22 23 24 24 22 21 21 22 21 21
24 24 24 25 26 26 26 26 25 22 21 20 21 22 22 19 21 23 20 20 20 20 21 22 22 22 22 23 23 23 23 23 22 21 22 22 22 21 21 21 21 21 22
22 23 23 24 24 26 26 26 25 22 21 20 20 21 20 21 21 22 21 20 22 23 23 22 22 22 22 23 22 23 22 22 22 20 20 20 21 20 20 21 22 22 23
20 22 22 23 23 25 24 25 24 22 21 20 21 22 20 20 21 22 20 20 22 24 23 22 22 22 22 22 22 22 23 24 23 22 21 21 20 20 19 19 21 23 24
19 20 21 22 23 23 22 23 23 23 22 21 21 21 21 22 21 21 21 22 22 24 25 23 23 23 22 22 22 22 22 22 23 22 24 24 24 22 20 20 20 21 23
18 19 20 21 22 22 22 22 23 24 23 24 24 25 25 24 22 22 22 22 22 21 24 24 22 23 22 21 21 20 20 20 22 22 23 24 24 23 22 20 19 20 20
18 18 20 20 20 22 22 24 24 25 23 23 21 24 24 24 24 24 23 21 21 20 21 22 22 21 21 20 20 19 19 19 21 23 22 23 24 23 22 21 21 20 21
18 19 20 21 21 21 22 23 23 22 21 21 20 19 21 23 22 21 22 21 22 22 23 22 21 20 20 20 20 18 18 18 20 21 20 22 24 23 22 22 22 22 21
16 18 19 19 19 21 21 22 22 21 20 20 19 18 19 20 20 20 22 21 22 21 21 21 20 21 22 22 21 19 18 18 20 22 23 23 24 23 22 22 22 22 22
14 17 17 19 20 20 20 21 21 22 22 21 20 20 20 19 19 19 19 19 20 19 19 20 20 22 22 22 22 22 19 18 19 22 22 23 23 23 23 23 23 22 22
15 16 16 16 17 19 19 20 20 22 22 22 22 21 21 20 19 18 18 18 16 17 18 20 21 22 22 22 23 23 23 21 20 21 21 23 23 23 23 23 23 23 23
14 15 14 14 15 16 18 19 20 21 22 23 22 22 20 19 20 18 18 16 18 17 17 18 21 22 22 23 23 23 24 23 21 19 18 20 22 21 22 23 24 23 23
12 12 12 13 13 15 17 18 19 19 20 21 22 22 22 19 22 22 19 18 19 19 18 17 19 21 22 22 23 24 24 24 25 24 23 23 22 22 22 22 22 24 23
11 12 12 13 13 13 15 16 18 19 20 20 20 21 20 21 21 22 23 22 21 22 22 20 20 19 19 20 21 22 23 24 24 24 24 23 23 23 22 22 22 22 24
11 11 11 11 11 12 13 15 17 17 18 19 20 20 20 20 22 23 23 22 23 21 21 22 22 23 23 22 22 23 23 24 24 25 25 24 23 23 23 22 21 21 22
9 8 9 9 10 10 10 11 14 15 17 17 17 18 20 20 20 22 23 22 22 22 21 21 22 23 24 24 23 23 23 23 22 22 24 24 23 23 23 22 23 22 22
9 9 8 8 8 8 8 8 9 11 11 13 15 17 18 18 20 21 21 22 22 22 21 21 21 23 24 23 23 22 21 20 21 21 20 20 21 22 21 23 23 23 23
9 9 9 8 8 7 7 6 6 7 7 8 8 11 12 14 16 18 19 20 21 22 22 21 21 21 22 22 21 21 20 20 19 19 18 18 18 18 18 18 19 20 20
10 9 9 8 8 7 6 6 5 5 5 6 6 7 9 9 12 14 16 16 16 17 19 21 22 22 22 22 20 20 20 19 19 18 18 17 17 17 17 18 18 19 21
Height
802 805 807 808 811 814 816 818 819 822 824 826 829 831 832 833 833 832 832 833 833 834 835 837 840 841 841 844 845 846 849 850 852 858 862 867 871 873 875 878 878 880 879
797 801 803 806 808 810 811 813 816 817 821 824 827 828 830 830 830 829 829 829 830 831 832 833 836 838 840 841 843 843 845 848 848 855 860 864 868 872 874 876 878 879 880
794 797 800 802 805 807 808 809 812 816 818 821 825 829 834 829 826 825 826 825 826 826 827 829 831 834 836 836 839 841 842 845 848 851 856 861 865 869 872 874 876 878 879
791 793 795 798 800 802 803 807 810 813 816 820 822 824 824 824 821 819 820 820 820 821 822 824 825 827 829 832 835 837 839 841 844 847 850 856 860 865 869 870 873 875 876
790 791 794 796 798 798 800 803 805 809 806 806 800 799 802 806 802 807 810 812 814 815 816 818 819 821 822 825 828 832 835 837 839 842 845 850 854 858 861 864 867 870 872
790 791 793 795 795 795 798 799 800 802 799 794 791 784 775 771 784 792 799 804 807 810 810 812 813 816 817 819 822 825 829 831 833 835 837 842 846 851 855 857 861 864 866
790 791 792 793 792 792 794 794 794 794 792 790 786 784 782 783 784 787 785 792 796 800 801 805 808 809 811 813 816 820 824 827 830 832 833 837 839 843 847 852 855 857 859
793 792 792 792 791 790 790 790 790 787 787 789 788 784 782 783 789 786 784 783 785 790 794 797 800 802 806 808 811 815 818 821 824 828 831 833 835 839 842 845 849 854 857
798 797 793 791 790 788 787 786 786 785 785 784 781 782 779 784 783 780 784 784 783 784 788 792 795 796 798 802 806 808 811 814 818 821 826 829 830 834 837 842 845 849 849
800 801 798 792 789 788 785 783 783 782 781 780 780 782 783 779 778 779 783 784 783 782 781 784 788 789 792 796 800 803 806 808 811 815 820 824 826 829 831 834 838 840 841
802 800 799 795 790 788 785 781 780 780 780 779 778 778 778 776 776 777 778 778 779 778 777 777 782 784 788 791 794 797 802 806 808 811 814 818 823 824 825 828 830 833 834
801 800 799 796 791 787 785 781 779 778 777 775 774 776 776 772 771 772 772 772 775 774 772 774 776 778 783 787 791 793 797 803 805 808 808 809 813 817 819 822 825 828 830
800 798 797 795 791 786 782 780 779 775 774 772 769 767 767 768 769 768 769 770 771 772 771 771 774 775 777 782 786 791 794 797 801 802 804 803 806 810 814 817 821 824 828
797 796 796 794 791 786 782 777 775 773 773 772 769 765 763 765 765 765 766 766 766 768 770 770 772 773 774 778 784 786 790 794 796 798 800 801 803 804 807 811 814 818 821
797 796 794 791 790 785 781 777 776 775 774 772 771 770 767 766 764 764 764 764 764 765 765 767 768 770 772 776 778 780 784 787 791 793 796 796 798 799 801 804 807 810 813
801 798 795 792 788 782 778 775 774 772 770 768 766 766 764 763 761 760 759 759 759 761 762 762 763 763 765 766 770 773 776 780 783 785 788 788 790 793 796 799 802 803 804
806 800 795 789 785 780 777 774 770 767 765 764 764 761 760 758 756 755 753 753 754 754 755 755 756 756 758 759 761 763 767 770 774 778 780 781 783 785 788 790 793 797 798
803 798 795 793 786 779 775 773 769 764 760 759 758 756 754 752 750 748 747 745 745 746 747 747 747 748 749 752 753 754 756 761 766 770 772 772 775 778 779 781 783 785 790
801 798 797 792 786 781 774 770 766 761 757 753 752 751 748 747 746 744 742 741 741 740 740 741 740 740 743 745 746 748 749 751 755 760 762 765 766 770 771 772 774 776 778
802 799 795 790 785 779 773 768 764 761 758 754 750 747 745 744 741 739 738 737 736 734 733 733 735 735 736 737 738 739 741 743 745 747 750 753 756 759 760 763 765 767 769
800 795 792 788 783 779 773 768 763 758 754 752 749 746 744 743 739 734 732 730 730 727 725 727 728 729 729 730 732 733 734 735 736 738 740 744 745 747 750 751 753 757 759
799 796 792 788 783 778 773 768 762 759 754 749 745 744 742 739 731 729 727 726 723 723 722 720 720 720 721 722 722 723 724 724 725 727 729 732 736 736 738 742 745 746 746
802 798 793 789 784 779 774 769 763 758 753 750 746 741 736 735 731 724 722 723 720 718 717 716 714 712 712 712 714 716 716 717 719 720 720 721 724 726 728 730 731 735 738
804 800 796 792 787 782 777 771 766 761 756 751 744 740 737 732 727 724 720 717 716 715 713 712 710 707 705 707 706 707 709 711 712 713 716 716 717 719 721 720 721 721 724
807 803 799 794 790 785 780 775 769 764 759 754 749 744 738 733 727 722 717 714 712 707 707 707 706 704 702 702 702 702 702 704 705 707 710 711 711 713 714 716 715 715 716
807 804 801 797 792 788 783 778 772 767 761 756 751 746 742 736 731 727 722 717 712 710 705 702 700 698 697 697 694 695 696 697 698 699 701 703 701 703 705 706 706 707 708
Wind_Speed
18 19 20 20 20 19 19 20 20 18 17 16 15 14 14 15 16 16 16 16 15 15 14 13 14 12 11 12 13 12 12 10 8 9 12 16 15 14 13 10 10 8 8
19 18 19 18 18 18 19 20 19 18 16 16 15 15 15 16 16 17 18 17 17 16 16 16 16 15 14 13 14 14 14 13 10 15 15 18 17 16 15 14 11 9 8
14 16 17 18 18 18 18 19 17 16 15 13 11 11 18 22 19 18 18 18 18 18 18 19 19 18 17 16 16 17 16 15 15 16 15 16 17 18 17 15 14 11 10
11 13 14 15 16 16 17 16 13 13 10 5 18 35 54 39 17 19 19 20 19 20 20 20 21 21 20 19 18 18 17 18 17 15 15 18 19 20 18 18 17 15 13
9 9 9 9 9 12 12 12 12 11 15 18 9 7 22 29 25 23 16 22 23 21 22 20 23 22 22 22 21 20 19 20 20 19 18 18 19 22 24 20 18 17 17
6 5 4 5 7 8 8 9 11 18 25 23 19 17 21 33 30 20 20 20 23 21 22 23 22 22 23 26 27 22 26 25 21 21 20 19 21 22 21 21 19 17 14
3 2 1 3 5 7 6 8 14 26 29 29 25 26 33 27 20 25 20 21 21 25 25 24 23 22 22 21 26 26 25 28 23 21 19 23 21 25 23 23 21 20 18
11 9 8 5 5 6 5 8 12 22 32 33 33 40 33 22 20 20 20 24 29 36 27 26 24 23 22 23 22 23 25 24 26 23 21 22 20 22 25 27 24 21 16
18 15 11 8 6 6 6 6 9 20 29 30 30 34 28 26 28 16 22 23 23 26 27 24 23 24 25 27 24 24 24 23 21 25 22 20 20 20 21 20 20 20 18
18 17 16 13 10 7 7 8 7 14 23 31 28 26 29 30 19 18 21 19 20 21 22 30 31 26 27 27 28 24 24 22 20 18 24 23 23 22 23 22 22 23 21
16 16 16 15 13 11 9 8 8 11 18 26 24 24 22 20 18 22 20 23 24 22 20 19 22 25 28 29 30 26 25 20 20 18 19 19 19 20 22 24 25 24 22
16 15 15 15 13 13 12 10 7 9 12 17 22 22 23 21 20 19 17 18 19 21 17 18 19 22 28 27 30 27 24 20 17 18 18 20 22 22 22 23 27 24 23
16 16 16 16 14 14 13 12 11 10 10 15 16 16 14 10 11 12 17 18 22 19 19 17 17 21 22 27 28 30 24 20 19 17 19 21 23 23 22 21 23 22 22
18 19 17 16 15 14 14 11 12 12 12 14 18 13 6 5 8 11 9 13 19 22 21 12 15 17 20 21 21 30 27 19 21 20 20 20 19 20 23 23 23 23 22
21 19 18 16 16 16 13 13 14 13 12 15 13 11 11 13 7 8 11 13 12 16 17 16 16 17 18 20 20 20 31 21 23 21 21 19 20 20 22 24 24 25 25
22 20 19 19 19 16 15 16 14 16 14 13 12 12 13 17 21 21 23 20 17 18 15 18 19 21 23 24 23 22 23 28 25 22 23 21 22 22 22 22 24 25 26
20 20 20 18 17 17 16 16 18 17 14 12 14 15 15 18 15 16 20 24 19 16 19 22 22 23 25 25 24 23 23 28 29 25 24 23 22 23 24 25 25 25 27
20 17 18 21 21 19 18 18 19 18 17 17 17 13 15 13 15 18 20 19 19 25 23 23 25 26 26 25 26 25 23 23 27 26 26 23 23 24 24 25 28 27 27
19 18 20 19 19 21 21 18 19 19 18 19 15 19 10 6 14 15 14 14 15 16 27 24 24 23 24 23 23 25 25 24 27 27 29 32 25 24 25 25 27 28 26
18 19 20 19 20 20 20 19 17 17 20 21 17 16 15 7 13 11 12 13 14 15 16 25 25 21 23 22 21 23 23 24 25 27 26 27 27 30 30 29 26 26 26
18 19 20 20 19 20 21 21 21 19 19 17 19 20 13 14 17 16 13 15 18 20 18 18 20 23 25 24 26 23 23 25 26 27 28 29 28 29 30 29 30 29 27
17 19 19 19 20 21 22 23 22 22 22 21 17 17 19 19 19 15 15 15 15 17 19 20 21 23 22 23 24 25 29 29 29 30 30 29 29 30 30 29 29 31 30
19 20 20 20 20 23 21 22 22 21 20 20 22 23 21 19 22 19 13 16 15 16 15 18 20 21 21 21 21 22 23 25 25 26 28 30 30 30 27 29 29 28 28
20 21 21 20 21 21 22 23 22 23 24 26 25 21 21 24 23 22 22 16 14 14 14 17 19 21 21 23 23 22 25 26 22 21 24 22 23 25 25 26 26 27 27
18 19 19 20 21 22 22 22 23 22 23 22 26 24 26 28 27 26 26 20 19 14 13 13 16 18 19 20 23 25 20 20 24 22 23 23 21 24 27 28 26 24 26
17 19 19 18 20 22 21 21 22 23 24 25 25 24 25 27 26 24 21 21 23 24 23 18 16 15 14 14 11 12 15 21 21 22 21 25 22 29 27 27 28 31 32
Wind_Direction
221 223 222 223 224 221 224 230 231 236 234 235 236 240 245 251 254 253 249 248 236 231 233 225 227 227 225 211 214 207 203 204 207 150 160 167 171 167 168 166 163 162 154
223 225 226 227 226 223 227 231 233 230 232 233 238 241 245 247 251 251 250 247 241 236 233 227 225 226 223 220 215 212 206 200 215 166 166 171 178 179 177 174 180 180 175
216 224 229 230 230 234 235 234 234 237 235 232 241 262 290 267 258 251 249 249 246 238 233 226 223 221 223 216 214 212 205 198 196 175 174 179 182 183 182 184 186 192 193
221 222 228 232 237 240 239 240 238 236 233 245 65 353 339 317 279 269 259 253 246 242 238 234 224 219 223 218 215 213 207 201 194 188 177 182 185 187 191 191 194 199 204
223 235 240 247 245 243 242 237 230 218 196 163 238 46 353 280 268 259 258 256 251 241 241 238 234 226 223 217 217 212 205 205 197 197 190 186 191 186 199 201 203 201 208
225 242 263 252 249 248 244 235 213 194 210 217 241 224 228 224 237 228 246 254 258 253 249 241 233 231 233 225 218 214 203 200 206 202 198 197 199 197 199 204 204 196 204
82 37 349 272 255 253 236 220 208 203 207 223 221 229 242 239 253 242 219 225 237 247 244 242 234 230 222 218 220 221 215 214 212 214 212 205 200 202 200 202 208 206 212
48 44 29 358 297 273 237 229 207 217 202 203 228 227 246 258 267 287 223 216 221 236 253 236 228 225 220 214 209 210 212 216 219 219 221 219 213 207 202 205 204 211 215
25 18 13 7 343 313 285 247 224 212 213 225 226 227 249 263 276 282 237 230 233 232 236 240 232 226 224 217 210 209 212 214 223 214 214 220 213 205 202 198 204 206 212
8 360 358 1 342 315 299 283 234 214 223 219 228 240 253 266 271 280 244 243 241 231 234 236 237 224 220 223 211 213 209 208 203 207 215 217 216 210 214 202 204 207 214
353 350 347 351 346 331 311 289 267 222 223 221 234 248 260 255 260 270 250 245 236 246 232 222 226 226 220 222 213 210 214 209 206 204 206 212 215 209 208 209 207 212 216
343 339 339 339 341 339 332 316 294 266 252 241 246 249 257 263 268 262 251 241 231 250 236 229 224 228 220 218 216 209 213 207 208 213 212 211 213 212 207 210 204 213 221
335 335 332 330 331 333 331 329 317 293 273 281 266 264 253 244 251 264 257 249 242 246 257 241 231 222 221 216 216 215 215 213 216 217 216 217 217 216 211 208 211 212 222
341 332 324 320 331 329 322 317 314 309 336 332 347 311 289 278 284 269 260 263 248 240 247 241 222 220 208 207 221 217 219 218 222 222 218 226 225 215 209 208 208 204 212
344 332 324 322 320 316 312 318 309 308 316 311 313 318 314 297 324 326 313 290 268 246 238 232 211 204 203 209 214 218 222 214 220 221 224 232 228 217 217 216 215 215 216
338 332 329 324 315 315 318 312 305 304 315 323 318 306 296 279 274 277 277 277 263 249 241 233 218 212 215 214 213 211 208 213 220 226 222 220 223 219 216 215 217 219 218
327 328 327 321 325 321 318 312 313 308 307 311 305 301 309 312 289 276 277 265 252 240 230 230 227 227 223 221 220 214 213 214 214 225 223 223 223 223 218 222 220 225 234
326 328 336 329 325 321 319 313 303 303 307 307 304 289 287 300 307 289 282 269 251 239 228 229 226 230 225 224 223 227 219 211 212 221 225 226 225 225 223 222 225 222 232
331 331 331 326 325 321 313 310 307 308 305 304 308 307 280 274 318 291 283 242 250 236 229 233 237 233 231 230 225 227 228 213 211 217 224 225 220 222 228 231 230 230 230
329 328 330 333 334 327 324 314 308 311 316 313 310 295 296 278 298 287 253 243 248 247 238 231 233 233 234 236 242 232 234 231 229 222 225 225 223 222 226 227 228 234 227
329 331 337 333 330 330 321 321 318 310 302 292 302 313 322 303 295 291 283 259 257 254 247 234 235 231 229 234 235 234 235 233 231 233 230 230 228 227 230 228 225 226 234
347 342 340 339 339 336 328 317 315 318 314 318 309 309 305 298 284 281 287 275 273 261 260 245 235 231 228 231 230 230 234 237 236 236 234 234 232 231 227 228 229 226 220
3 356 350 346 344 342 341 339 332 328 318 311 314 316 306 301 299 302 286 290 283 271 265 256 252 245 240 237 233 231 233 238 239 240 242 238 230 232 227 232 228 230 230
9 7 3 358 355 351 348 344 344 341 343 344 333 316 313 304 293 283 298 293 276 275 269 263 267 264 257 256 255 241 241 245 251 242 245 248 239 233 234 233 228 228 232
7 7 8 7 4 0 356 353 351 348 345 346 344 345 344 342 328 310 317 315 300 280 273 271 268 268 264 257 258 260 257 257 240 247 245 243 235 234 235 239 240 239 239
8 6 3 2 7 8 5 358 355 354 352 351 348 347 343 347 351 346 341 342 339 327 317 292 278 272 265 270 283 256 246 246 256 257 243 242 244 233 228 234 238 230 237